Location: Perryvale
(54.4667°N, 113.3833°W)
Time: 22:33:20
(UTC+00:00)

Vanguard 1 Rocket - Pass Details

Date: 22 May 2024
Orbit: 649 x 4221 km, 34.3° (Epoch: 13 June)

Event Time Altitude Azimuth Distance (km) Brightness Sun altitude
Rises 16:10:40 0° 217° (SW) 8,184 12.1 39.5°
Reaches altitude 10° 16:18:22 10° 207° (SSW) 6,733 11.9 40.6°
Maximum altitude 16:32:27 24° 164° (SSE) 4,416 11.7 42.4°
Drops below altitude 10° 16:41:52 10° 116° (ESE) 4,403 12.0 43.6°
Sets 16:45:29 0° 103° (ESE) 4,932 11.9 44.1°
